Location: Bakov nad Jizerou
(50.4784°N, 14.9394°E)
Time: 11:36:18
(UTC+00:00)

Cosmos 2322 - Visible Passes

Search period start: 23 October 2021 00:00
Search period end: 02 November 2021 00:00
Orbit: 840 x 855 km, 71.0° (Epoch: 22 October)

Date Brightness Start Highest point End Pass type
(mag) Time Alt. Az. Time Alt. Az. Time Alt. Az.
23 Oct 6.6 00:37:08 10° N 00:37:46 10° NNE 00:38:23 10° NNE visible
23 Oct 5.8 02:19:40 10° NNW 02:24:15 24° NE 02:28:48 10° E visible
23 Oct 3.7 04:03:27 10° NNW 04:09:12 88° WSW 04:14:53 10° SSE visible
23 Oct 6.0 19:00:20 10° SSW 19:00:36 11° SSW 19:00:36 11° SSW visible
24 Oct 6.6 00:24:18 10° NNE 00:24:26 10° NNE 00:24:55 10° NNE visible
24 Oct 5.8 02:06:22 10° NNW 02:10:56 24° NE 02:15:27 10° E visible
24 Oct 3.7 03:50:09 10° NNW 03:55:54 89° WSW 04:01:35 10° SSE visible
24 Oct 5.6 17:06:40 10° SE 17:07:18 11° ESE 17:07:18 11° ESE visible
24 Oct 5.1 18:47:02 10° SSW 18:49:21 26° SSW 18:49:21 26° SSW visible
25 Oct 5.8 01:54:01 14° N 01:57:37 23° NE 02:02:07 10° E visible
25 Oct 3.7 03:36:51 10° NNW 03:42:36 90° ENE 03:48:17 10° SSE visible
25 Oct 5.3 16:53:28 10° SE 16:55:58 14° E 16:55:58 14° E visible
25 Oct 4.1 18:33:44 10° SSW 18:38:00 51° S 18:38:00 51° S visible
25 Oct 6.3 20:19:25 10° W 20:20:02 13° W 20:20:02 13° W visible
26 Oct 5.8 01:42:00 18° N 01:44:18 23° NE 01:48:46 10° E visible
26 Oct 3.6 03:24:00 12° NNW 03:29:18 88° ENE 03:34:59 10° SSE visible
26 Oct 5.3 16:40:17 10° SE 16:42:58 14° E 16:44:26 12° E visible
26 Oct 3.5 18:20:27 10° SSW 18:26:09 75° ESE 18:26:28 72° E visible
26 Oct 5.9 20:06:05 10° W 20:08:29 20° W 20:08:29 20° W visible
27 Oct 5.8 01:30:12 22° NNE 01:30:59 23° NE 01:35:25 10° E visible
27 Oct 3.6 03:12:13 22° NNW 03:16:00 87° ENE 03:21:41 10° SSE visible
27 Oct 5.1 04:55:44 10° WNW 04:59:25 18° W 05:03:04 10° SW visible
27 Oct 5.3 16:27:06 10° ESE 16:29:41 13° E 16:32:15 10° ENE visible
27 Oct 3.6 18:07:09 10° SSW 18:12:51 73° ESE 18:14:41 44° NE visible
27 Oct 5.6 19:52:45 10° W 19:56:42 26° WNW 19:56:42 26° WNW visible
28 Oct 5.9 01:18:39 22° NE 01:18:39 22° NE 01:22:05 10° E visible
28 Oct 3.6 03:00:41 43° NNW 03:02:42 86° ENE 03:08:23 10° SSE visible
28 Oct 5.0 04:42:44 11° WNW 04:46:08 18° W 04:49:51 10° SW visible
28 Oct 5.4 16:13:55 10° ESE 16:16:24 13° E 16:18:53 10° ENE visible
28 Oct 3.6 17:53:52 10° SSW 17:59:33 72° ESE 18:02:40 28° NE visible
28 Oct 5.5 19:39:25 10° W 19:44:18 28° NW 19:44:40 28° NW visible
29 Oct 6.2 01:07:17 15° ENE 01:07:17 15° ENE 01:08:44 10° E visible
29 Oct 3.6 02:49:20 84° NE 02:49:24 85° ENE 02:55:05 10° SSE visible
29 Oct 5.0 04:31:23 17° W 04:32:51 19° W 04:36:36 10° SW visible
29 Oct 3.6 17:40:34 10° SSW 17:46:15 71° ESE 17:50:25 19° NE visible
29 Oct 5.5 19:26:05 10° WSW 19:30:58 28° NW 19:32:24 25° NNW visible
30 Oct 4.5 02:38:05 43° SE 02:38:05 43° SE 02:41:47 10° SSE visible
30 Oct 5.0 04:20:08 19° WSW 04:20:08 19° WSW 04:23:23 10° SW visible
30 Oct 3.6 17:27:16 10° SSW 17:32:57 70° ESE 17:37:59 14° NE visible
30 Oct 5.5 19:12:45 10° WSW 19:17:39 29° NW 19:19:57 22° N visible
31 Oct 5.6 02:26:52 20° SSE 02:26:52 20° SSE 02:28:28 10° SSE visible
31 Oct 5.4 04:08:55 14° SW 04:08:55 14° SW 04:10:08 10° SW visible
31 Oct 3.7 17:13:59 10° SSW 17:19:39 69° ESE 17:25:21 10° NNE visible
31 Oct 5.4 18:59:24 10° WSW 19:04:21 29° NW 19:07:21 19° N visible
31 Oct 6.6 20:48:54 10° NW 20:49:19 11° NNW 20:49:19 11° NNW visible
01 Nov 3.7 17:00:42 10° SSW 17:06:21 68° ESE 17:12:03 10° NNE visible
01 Nov 5.4 18:46:05 10° WSW 18:51:02 29° NW 18:54:39 16° N visible
01 Nov 6.5 20:35:30 10° NW 20:36:35 11° NNW 20:36:35 11° NNW visible
